sat.trackr.live / text

‹ back to catalog

STARLINK-31760

NORAD 59869 · 2024-098M

PAYLOAD ACTIVE UNKNOWN

§ Identity

Operator
Country
US
Launch date
2024-05-24
Launch site
AFETR
Launch vehicle
Mass (kg)
RCS (m²)

Purposes: comms

External: N2YO · Heavens-Above · Gunter

§ Orbital elements

Epoch: 2026-05-25T04:42:45.370080Z

Period
94.27 min
Inclination
43.0005°
Eccentricity
0.0001296
Mean motion
15.27569275 rev/d
Perigee alt
482.2 km
Apogee alt
484.0 km
Semi-major
6,861.2 km
B*
7.5673e-5
RAAN
206.2010°
Arg perigee
269.1298°
Mean anomaly
90.9405°
Rev number
11,354

§ Raw data

STARLINK-317601 59869U 24098M   26145.19635845  .00001820  00000+0  75673-4 0  99912 59869  43.0005 206.2010 0001296 269.1298  90.9405 15.27569275113547

JSON: /api/v1/satellites/59869 · /tle

For live sub-satellite position, see the globe view (requires WebGL).

§ Visibility from observer

Set your observer location to see the next 7 days of passes ≥ 10°. The values pass through the URL so the page stays shareable.

No JS? Fill the form by hand. The geolocation button needs JavaScript.